Starlink 11589

operational
NORAD ID: 63311 Int'l Des: 2025-057 Owner: SPXS Country: US Constellation: starlink
LEOCIRCULAR

Starlink 11589について

説明を読み込み中...

リアルタイム位置

3D地球を読み込み中...

次回通過

高度履歴

Altitude vs Time

uPlot chart will show altitude changes over time

軌道要素

1 63311U 25057E 25305.51060571 .00258135 00000-0 19494-2 0 9996
2 63311 42.9993 317.5752 0002897 272.2601 87.7935 15.70886768 37014
Epoch: Nov 1, 2025 • Age: 50 hours

現在のステータス

高度 353.3 km
速度 7.70 km/s
衛星直下点 6.43°N, 131.72°W
打ち上げ日 Mar 18, 2025
運用期間 0.6 years
タイプ internet

技術仕様

分類 Payload
質量 960.00 kg
乾燥質量 910.00 kg
総質量 960.00 kg
長さ 0.30 m
直径 4.10 m
スパン 29.00 m
形状 Box + pan
製造者 SPXS
バスタイプ Starlink V2MD
フェーズステータス In Orbit
所有者/国 SPXS/US

大規模コンステレーション

Loading constellations...